This is the latest recevied weather packets stored in our database for station/object KE0PRS. If no packets are shown the sender has not sent any weather packets the latest 10 day(s).
| Time | Temp. | Humidity | Pressure | Rain* | Wind** | Luminosity | Snow |
|---|---|---|---|---|---|---|---|
| 1777602495 | 9.44° C | 83% | 1019.9 hPa | 0 mm | - | 0 W/m² | - |
| 1777602192 | 9.44° C | 82% | 1019.9 hPa | 0 mm | - | 0 W/m² | - |
| 1777601887 | 9.44° C | 83% | 1020 hPa | 0 mm | - | 0 W/m² | - |
| 1777601582 | 9.44° C | 83% | 1019.7 hPa | 0 mm | - | 0 W/m² | - |
| 1777601278 | 9.44° C | 83% | 1019.8 hPa | 0 mm | - | 0 W/m² | - |
| 1777600975 | 9.44° C | 82% | 1019.9 hPa | 0 mm | - | 0 W/m² | - |
| 1777600671 | 9.44° C | 81% | 1019.7 hPa | 0 mm | - | 0 W/m² | - |
| 1777600367 | 10° C | 80% | 1019.4 hPa | 0 mm | - | 0 W/m² | - |
| 1777600063 | 10° C | 80% | 1019.7 hPa | 0 mm | - | 0 W/m² | - |
| 1777599759 | 10° C | 79% | 1019.6 hPa | 0 mm | - | 0 W/m² | - |
| 1777599455 | 10° C | 78% | 1019.4 hPa | 0 mm | - | 1 W/m² | - |
| 1777599152 | 10.56° C | 77% | 1019.5 hPa | 0 mm | - | 2 W/m² | - |
| 1777598852 | 10.56° C | 76% | 1019.4 hPa | 0 mm | - | 3 W/m² | - |
| 1777598552 | 11.11° C | 75% | 1019.5 hPa | 0 mm | - | 5 W/m² | - |
| 1777598246 | 11.11° C | 74% | 1019.3 hPa | 0 mm | - | 7 W/m² | - |
| 1777597945 | 11.67° C | 72% | 1019.2 hPa | 0 mm | - | 10 W/m² | - |
| 1777597644 | 11.67° C | 71% | 1019.2 hPa | 0 mm | - | 13 W/m² | - |
| 1777597340 | 12.22° C | 70% | 1019 hPa | 0 mm | - | 17 W/m² | - |
| 1777597035 | 12.22° C | 69% | 1019 hPa | 0 mm | - | 21 W/m² | - |
| 1777596732 | 12.78° C | 68% | 1019.1 hPa | 0 mm | - | 24 W/m² | - |
| 1777596429 | 12.78° C | 68% | 1019 hPa | 0 mm | - | 27 W/m² | - |
| 1777596126 | 12.78° C | 68% | 1019.1 hPa | 0 mm | - | 38 W/m² | - |
| 1777595822 | 12.78° C | 69% | 1019.1 hPa | 0 mm | - | 33 W/m² | - |
| 1777595517 | 12.78° C | 67% | 1019.1 hPa | 0 mm | - | 33 W/m² | - |
| 1777595214 | 12.78° C | 67% | 1019 hPa | 0 mm | - | 35 W/m² | - |
* Rain latest hour (hover to see other rain measurements)
** Current wind speed in m/s (hover to see current wind gust speed)